Tracking 18945 objects as of 19-Jan-2018
HD Live streaming from Space Station
objects crossing your sky now

COSMOS 1235

Track COSMOS 1235 now!
10-day predictions
COSMOS 1235 is classified as:


NORAD ID: 12114
Int'l Code: 1980-102H
Perigee: 1,421.0 km
Apogee: 1,470.7 km
Inclination: 74.0 °
Period: 114.6 minutes
Semi major axis: 7816 km
RCS: 0.7012 m2 (medium)
Launch date: December 23, 1980
Source: Commonwealth of Independent States (former USSR) (CIS)
Launch site: PLESETSK MISSILE AND SPACE COMPLEX (PKMTR)
aabbcc
Your satellite tracking list
Your tracking list is empty




NASA's NSSDC Master Catalog

Two Line Element Set (TLE):
1 12114U 80102H   18018.91678817 -.00000020 +00000-0 -24578-4 0  9999
2 12114 073.9909 205.1685 0031798 077.1261 075.0582 12.56184124699912
Source of the keplerian elements: AFSPC